CW3742 Weather Reports


Display with metric or nautical units.
time (UTC)temp
F
wind
direction
speed
MPH
gust
MPH
rain 1hr
in
rain 24hr
in
rain mn
in
humidity
%
barometer
mb
20260903120016 76 158 5.0 8.0 0.00 0.00 0.00 84 994.2
20260903113016 76 158 5.0 7.0 0.00 0.00 0.00 85 994.0
20260903110036 76 158 5.0 8.0 0.00 0.00 0.00 85 993.9
20260903103016 76 158 5.0 9.0 0.00 0.00 0.00 84 993.8
20260903100018 77 158 5.0 7.0 0.00 0.00 0.00 84 993.8
20260903093038 77 180 4.0 7.0 0.00 0.00 0.00 82 993.7
20260903090016 78 180 4.0 7.0 0.00 0.00 0.00 82 993.9
20260903083018 78 180 4.0 7.0 0.00 0.00 0.00 82 993.8
20260903080016 79 180 4.0 7.0 0.00 0.00 0.00 81 993.7
20260903073016 79 180 4.0 7.0 0.00 0.00 0.00 81 993.8
20260903070017 79 180 3.0 7.0 0.00 0.00 0.00 81 994.0
20260903063016 79 180 3.0 6.0 0.00 0.00 0.00 81 994.1
20260903060017 80 180 3.0 6.0 0.00 0.00 0.00 81 994.1
20260903053016 80 180 4.0 6.0 0.00 0.00 0.00 81 994.2
20260903050016 81 180 3.0 7.0 0.00 0.00 0.00 81 994.1
20260903043036 81 180 3.0 6.0 0.00 0.00 0.00 81 994.0
20260903040036 82 180 3.0 7.0 0.00 0.00 0.00 80 994.0
20260903033017 82 180 4.0 7.0 0.00 0.00 0.00 79 994.1
20260903030036 83 180 4.0 8.0 0.00 0.00 0.00 78 994.0
20260903023016 84 180 3.0 6.0 0.00 0.00 0.00 76 993.9
20260903020017 85 158 4.0 8.0 0.00 0.00 0.00 76 993.6
20260903013016 85 158 4.0 7.0 0.00 0.00 0.00 75 993.3
20260903010016 87 158 4.0 7.0 0.00 0.00 0.00 73 993.2
20260903003018 88 158 4.0 8.0 0.00 0.00 0.00 71 993.3
20260903000018 90 180 4.0 7.0 0.00 0.00 0.00 70 993.4
20260902233016 92 180 3.0 7.0 0.00 0.00 0.00 66 993.6
20260902230016 94 203 5.0 12.0 0.00 0.00 0.00 59 993.6
20260902223016 95 203 6.0 11.0 0.00 0.00 0.00 59 993.6
20260902220016 96 203 6.0 12.0 0.00 0.00 0.00 58 993.8
20260902213016 96 203 7.0 12.0 0.00 0.00 0.00 56 993.9
20260902210016 95 203 8.0 15.0 0.00 0.00 0.00 57 994.1
20260902203016 95 203 8.0 15.0 0.00 0.00 0.00 57 994.3
20260902200016 95 225 9.0 16.0 0.00 0.00 0.00 57 994.5
20260902193036 94 203 9.0 17.0 0.00 0.00 0.00 59 994.7
20260902190016 94 225 8.0 15.0 0.00 0.00 0.00 58 994.8
20260902183036 93 225 8.0 15.0 0.00 0.00 0.00 61 995.1
20260902180018 92 225 7.0 14.0 0.00 0.00 0.00 61 995.4
20260902173037 92 225 7.0 13.0 0.00 0.00 0.00 62 995.8
20260902170017 90 225 7.0 12.0 0.00 0.00 0.00 64 996.0
20260902163036 89 225 5.0 10.0 0.00 0.00 0.00 65 996.1
20260902160017 88 225 3.0 8.0 0.00 0.00 0.00 66 996.2
20260902153017 87 225 3.0 7.0 0.00 0.00 0.00 67 996.1
20260902150058 84 225 5.0 11.0 0.00 0.00 0.00 70 996.1
20260902143017 82 225 6.0 12.0 0.00 0.00 0.00 75 995.9
20260902140017 80 225 5.0 22.0 0.00 0.00 0.00 78 996.2
20260902130017 78 203 6.0 10.0 0.00 0.00 0.00 79 995.5
20260902123016 76 203 4.0 8.0 0.00 0.00 0.00 83 995.6